Location: Harwich
(41.7160°N, 69.9939°W)
Time: 12:38:51
(UTC+01:00)

A-11 Canister half - Visible Passes

Search period start: 23 February 2024 00:00
Search period end: 04 March 2024 00:00
Orbit: 1512 x 1687 km, 47.2° (Epoch: 22 February)

Date Brightness Start Highest point End Pass type
(mag) Time Alt. Az. Time Alt. Az. Time Alt. Az.
23 Feb 9.5 08:19:59 55° ENE 08:19:59 55° ENE 08:27:17 10° ENE visible
23 Feb 9.2 10:18:10 36° WNW 10:22:51 66° N 10:32:35 10° ENE visible
24 Feb 9.8 07:58:07 44° ENE 07:58:07 44° ENE 08:04:17 10° ENE visible
24 Feb 9.2 09:56:18 45° WNW 09:59:46 67° N 10:09:35 10° ENE visible
24 Feb 9.3 11:55:45 10° WNW 12:05:46 72° NNE 12:15:24 10° E visible
25 Feb 10.2 07:36:15 35° ENE 07:36:15 35° ENE 07:41:16 10° ENE visible
25 Feb 9.1 09:34:26 55° WNW 09:36:43 68° N 09:46:33 10° ENE visible
25 Feb 9.3 11:32:41 10° WNW 11:42:44 71° NNE 11:52:23 10° E visible
26 Feb 10.5 07:14:22 28° ENE 07:14:22 28° ENE 07:18:17 10° ENE visible
26 Feb 9.1 09:12:33 65° NW 09:13:39 69° NNW 09:23:32 10° ENE visible
26 Feb 9.3 11:10:43 14° WNW 11:19:41 70° NNE 11:29:22 10° E visible
27 Feb 10.7 06:52:28 22° ENE 06:52:28 22° ENE 06:55:16 10° ENE visible
27 Feb 9.1 08:50:38 70° NNW 08:50:38 70° NNW 09:00:32 10° ENE visible
27 Feb 9.3 10:48:49 19° WNW 10:56:38 69° NNE 11:06:20 10° E visible
28 Feb 10.9 06:30:33 17° ENE 06:30:33 17° ENE 06:32:15 10° ENE visible
28 Feb 9.2 08:28:44 66° NNE 08:28:44 66° NNE 08:37:30 10° ENE visible
28 Feb 9.3 10:26:54 24° WNW 10:33:35 68° N 10:43:19 10° E visible
29 Feb 11.1 06:08:38 12° ENE 06:08:38 12° ENE 06:09:14 10° ENE visible
29 Feb 9.5 08:06:49 57° NE 08:06:49 57° NE 08:14:30 10° ENE visible
29 Feb 9.3 10:04:59 31° WNW 10:10:31 67° N 10:20:17 10° E visible
01 Mar 9.8 07:44:54 47° NE 07:44:54 47° NE 07:51:28 10° ENE visible
01 Mar 9.3 09:43:04 38° WNW 09:47:27 66° N 09:57:15 10° E visible
01 Mar 9.2 11:42:55 10° WNW 11:52:57 79° SSW 12:02:35 10° SE visible
02 Mar 10.1 07:22:59 38° ENE 07:22:59 38° ENE 07:28:27 10° ENE visible
02 Mar 9.3 09:21:10 46° NW 09:24:24 65° N 09:34:13 10° E visible
02 Mar 9.1 11:19:53 10° WNW 11:29:58 82° SSW 11:39:39 10° SE visible
03 Mar 10.3 07:01:06 31° ENE 07:01:06 31° ENE 07:05:27 10° ENE visible
03 Mar 9.3 08:59:16 55° NW 09:01:19 65° N 09:11:11 10° E visible
03 Mar 9.1 10:57:27 12° WNW 11:06:58 85° SSW 11:16:42 10° ESE visible
